Location: Unspecified
(0.0000°N, 0.0000°E)
Time: 03:40:13
(UTC+01:00)

Ariane H10 - Pass Details

Date: 30 November 2017
Orbit: 390 x 35079 km, 4.3° (Epoch: 13 December)

Event Time Altitude Azimuth Distance (km) Brightness Sun altitude
Rises 17:13:54 0° 263° (W) 4,877 8.9 21.9°
Reaches altitude 10° 17:15:43 10° 262° (W) 4,470 9.2 21.5°
Maximum altitude 00:57:09 85° 20° (NNE) 26,547 10.7 -68.3°
Drops below altitude 10° 03:01:45 10° 85° (E) 7,277 8.8 -51.0°
Sets 03:04:42 0° 86° (E) 7,374 9.0 -50.4°
